Location: Hradec Kralove
(50.2170°N, 15.8330°E)
Time: 11:55:08
(UTC+01:00)

Tiros 1 despin weight - All Passes

Search period start: 31 January 2023 00:00
Search period end: 10 February 2023 00:00
Orbit: 589 x 636 km, 48.2° (Epoch: 30 January)

Date Brightness Start Highest point End Pass type
(mag) Time Alt. Az. Time Alt. Az. Time Alt. Az.
31 Jan - 17:09:40 10° SSW 17:13:21 25° SSE 17:17:00 10° E daylight
31 Jan - 18:49:50 10° WSW 18:54:17 57° SSE 18:58:40 10° E visible
31 Jan - 20:31:05 10° W 20:35:33 66° S 20:39:57 10° ESE visible
31 Jan - 22:12:34 10° W 22:16:38 35° SSW 22:20:38 10° SE night (unlit)
31 Jan - 23:56:15 10° SW 23:57:06 10° SW 23:57:57 10° SSW night (unlit)
01 Feb - 15:46:04 10° SSE 15:47:21 11° SE 15:48:38 10° ESE daylight
01 Feb - 17:23:43 10° SW 17:27:53 36° SSE 17:31:59 10° E visible
01 Feb - 19:04:29 10° WSW 19:08:59 66° S 19:13:25 10° E visible
01 Feb - 20:45:50 10° W 20:50:15 57° SSW 20:54:35 10° ESE visible
01 Feb - 22:27:33 10° W 22:31:08 24° SSW 22:34:41 10° SSE night (unlit)
02 Feb - 15:58:33 10° S 16:01:42 18° SE 16:04:50 10° E daylight
02 Feb - 17:38:05 10° SW 17:42:29 49° SSE 17:46:49 10° E visible
02 Feb - 19:19:12 10° W 19:23:42 69° S 19:28:09 10° E visible
02 Feb - 21:00:37 10° W 21:04:53 44° SSW 21:09:06 10° SE visible
02 Feb - 22:42:56 10° WSW 22:45:33 15° SW 22:48:08 10° S night (unlit)
03 Feb - 16:12:15 10° SSW 16:16:09 28° SSE 16:20:01 10° E daylight
03 Feb - 17:52:39 10° WSW 17:57:09 61° SSE 18:01:34 10° E visible
03 Feb - 19:33:56 10° W 19:38:25 64° S 19:42:50 10° ESE visible
03 Feb - 21:15:29 10° W 21:19:28 32° SSW 21:23:23 10° SE visible
04 Feb - 14:47:54 10° SSE 14:50:05 13° SE 14:52:15 10° ESE daylight
04 Feb - 16:26:25 10° SW 16:30:41 40° SSE 16:34:55 10° E daylight
04 Feb - 18:07:19 10° WSW 18:11:51 68° S 18:16:18 10° E visible
04 Feb - 19:48:42 10° W 19:53:06 53° SSW 19:57:25 10° ESE visible
04 Feb - 21:30:32 10° W 21:33:55 21° SW 21:37:17 10° SSE visible
05 Feb - 15:00:59 10° SSW 15:04:27 21° SE 15:07:54 10° E daylight
05 Feb - 16:40:51 10° WSW 16:45:18 53° SSE 16:49:43 10° E daylight
05 Feb - 18:22:02 10° W 18:26:33 69° S 18:31:01 10° E visible
05 Feb - 20:03:29 10° W 20:07:43 40° SSW 20:11:53 10° SE visible
05 Feb - 21:46:08 10° WSW 21:48:17 13° SW 21:50:25 10° SSW visible
06 Feb - 15:14:51 10° SW 15:18:55 31° SSE 15:22:57 10° E daylight
06 Feb - 16:55:26 10° WSW 16:59:58 64° S 17:04:27 10° E daylight
06 Feb - 18:36:46 10° W 18:41:15 62° S 18:45:40 10° ESE visible
06 Feb - 20:18:22 10° W 20:22:14 28° SSW 20:26:02 10° SSE visible
07 Feb - 13:50:03 10° S 13:52:47 16° SE 13:55:30 10° ESE daylight
07 Feb - 15:29:06 10° SW 15:33:28 44° SSE 15:37:48 10° E daylight
07 Feb - 17:10:07 10° W 17:14:40 69° S 17:19:09 10° E daylight
07 Feb - 18:51:31 10° W 18:55:54 50° SSW 19:00:14 10° ESE visible
07 Feb - 20:33:31 10° W 20:36:39 19° SW 20:39:47 10° S visible
08 Feb - 14:03:28 10° SSW 14:07:10 24° SSE 14:10:52 10° E daylight
08 Feb - 15:43:35 10° WSW 15:48:05 57° SSE 15:52:33 10° E daylight
08 Feb - 17:24:49 10° W 17:29:22 67° S 17:33:51 10° ESE visible
08 Feb - 19:06:18 10° W 19:10:29 37° SSW 19:14:35 10° SE visible
08 Feb - 20:49:34 10° WSW 20:50:58 11° SW 20:52:23 10° SSW visible
09 Feb - 12:40:01 10° SSE 12:41:09 11° SE 12:42:17 10° ESE daylight
09 Feb - 14:17:27 10° SW 14:21:39 35° SSE 14:25:50 10° E daylight
09 Feb - 15:58:11 10° WSW 16:02:45 66° S 16:07:16 10° E daylight
09 Feb - 17:39:32 10° W 17:44:02 59° SSW 17:48:28 10° ESE visible
09 Feb - 19:21:14 10° W 19:24:58 25° SSW 19:28:39 10° SSE visible
